Regional Weather Roundup
Issued by NWS Little Rock, AR

Home | Current Version | Previous Version | Graphics & Text | Print | Product List | Glossary On
Versions: 1 2 3 4 5 6 7 8 9 10 11 12 13 14 15 16 17 18 19 20 21 22 23 24 25 26 27 28 29 30 31
000
ASUS44 KLZK 220605
RWRLZK

WEATHER ROUNDUP FOR ARKANSAS
NATIONAL WEATHER SERVICE LITTLE ROCK AR
1200 AM CST WED FEB 22 2017

NOTE: "FAIR" INDICATES FEW OR NO CLOUDS BELOW 12,000 FEET WITH NO
SIGNIFICANT WEATHER AND/OR OBSTRUCTIONS TO VISIBILITY.

ARZ001-003-010-029-220700-
NORTHWEST ARKANSAS

CITY           SKY/WX    TMP DP  RH WIND       PRES   REMARKS
FAYETTEVILLE   CLOUDY    51  51 100 CALM      29.92F
6HR MIN TEMP:  48; 6HR MAX TEMP:  62;

FORT SMITH     CLEAR     55  52  89 W3        29.91S
6HR MIN TEMP:  54; 6HR MAX TEMP:  67;

HARRISON       CLOUDY    56  56 100 CALM      29.92S
6HR MIN TEMP:  56; 6HR MAX TEMP:  58;

BENTONVILLE    CLEAR     50  48  93 CALM      29.93S VSB 1
6HR MIN TEMP:  50; 6HR MAX TEMP:  64;

ROGERS         FOG       54  54 100 W3        29.93S VSB 1
6HR MIN TEMP:  51; 6HR MAX TEMP:  63;

SILOAM SPGS    CLEAR     54  52  94 CALM      29.92F
6HR MIN TEMP:  52; 6HR MAX TEMP:  64;

HIGHFILL       CLEAR     51  50  96 W5        29.92F
6HR MIN TEMP:  50; 6HR MAX TEMP:  65;

$$

ARZ004-005-016-220700-
NORTH CENTRAL ARKANSAS

CITY           SKY/WX    TMP DP  RH WIND       PRES   REMARKS
BATESVILLE     CLOUDY    57  55  94 CALM      29.90F
6HR MIN TEMP:  57; 6HR MAX TEMP:  59; 6HR PCP:  0.01;

FLIPPIN        CLOUDY    57  52  82 CALM      29.89S
6HR MIN TEMP:  55; 6HR MAX TEMP:  59;

MTN HOME       CLOUDY    55  55 100 CALM      29.91R
6HR MIN TEMP:  54; 6HR MAX TEMP:  57;

$$

ARZ040-041-220700-
WEST CENTRAL ARKANSAS

CITY           SKY/WX    TMP DP  RH WIND       PRES   REMARKS
MENA           CLOUDY    63  61  94 CALM      29.91F
MOUNT IDA      CLOUDY    59  57  93 CALM      29.88S
6HR MIN TEMP:  59; 6HR MAX TEMP:  60;

$$

ARZ009-017-025-026-028-220700-
NORTHEAST ARKANSAS

CITY           SKY/WX    TMP DP  RH WIND       PRES   REMARKS
CORNING        CLOUDY    59  59 100 E20       29.87F
JONESBORO      CLOUDY    60  58  92 CALM      29.87S
6HR MIN TEMP:  59; 6HR MAX TEMP:  63;

NEWPORT        CLOUDY    58  58 100 MISG      29.88F
6HR MIN TEMP:  57; 6HR MAX TEMP:  62;

WALNUT RIDGE   CLOUDY    57  55  94 N12       29.89R
6HR MIN TEMP:  57; 6HR MAX TEMP:  63;

BLYTHEVILLE    CLOUDY    59  59 100 SE7       29.88F
6HR MIN TEMP:  59; 6HR MAX TEMP:  62;

$$

ARZ022-023-033-042-044-220700-
CENTRAL ARKANSAS

CITY           SKY/WX    TMP DP  RH WIND       PRES   REMARKS
LITTLE ROCK    CLOUDY    57  57 100 N5        29.89F FOG
6HR MIN TEMP:  57; 6HR MAX TEMP:  60; 6HR PCP:  0.02;

JACKSONVILLE   PTCLDY    57  57  99 CALM      29.88F
6HR MIN TEMP:  57; 6HR MAX TEMP:  61; 6HR PCP:  0.01;

SEARCY         CLOUDY    59  59 100 NW5       29.91S
6HR MIN TEMP:  55; 6HR MAX TEMP:  61;

HOT SPRINGS    CLOUDY    60  59  96 CALM      29.90S
6HR MIN TEMP:  59; 6HR MAX TEMP:  60;

RUSSELLVILLE   CLOUDY    59  57  93 CALM      29.89S
6HR MIN TEMP:  57; 6HR MAX TEMP:  60; 6HR PCP: TRACE;

CLINTON        CLOUDY    55  55 100 CALM      29.90F FOG
$$

ARZ036-220700-
EAST ARKANSAS

CITY           SKY/WX    TMP DP  RH WIND       PRES   REMARKS
WEST MEMPHIS   CLOUDY    59  59 100 E8        29.86F
6HR MIN TEMP:  59; 6HR MAX TEMP:  63; 6HR PCP:  0.01;

$$

ARZ050-053-066-070-073-220700-
SOUTHWEST ARKANSAS

CITY           SKY/WX    TMP DP  RH WIND       PRES   REMARKS
ARKADELPHIA    CLOUDY    59  58  96 CALM      29.89F
6HR MIN TEMP:  59; 6HR MAX TEMP:  60; 6HR PCP: TRACE;

CAMDEN         CLOUDY    59  57  94 NW5       29.89R
TEXARKANA      PTCLDY    60  55  83 CALM      29.88F
6HR MIN TEMP:  60; 6HR MAX TEMP:  64;

EL DORADO      CLOUDY    60  59  96 NW7       29.88S
6HR MIN TEMP:  59; 6HR MAX TEMP:  60; 6HR PCP:  0.02;

DE QUEEN       FOG       53  53 100 CALM      29.88S VSB 1/4
6HR MIN TEMP:  53; 6HR MAX TEMP:  66;

$$

ARZ056-057-069-220700-
SOUTHEAST ARKANSAS

CITY           SKY/WX    TMP DP  RH WIND       PRES   REMARKS
PINE BLUFF     FOG       57  57 100 W3        29.88S VSB 1/4
6HR MIN TEMP:  57; 6HR MAX TEMP:  60;

STUTTGART      CLEAR     55  48  76 N6        29.89S
6HR MIN TEMP:  54; 6HR MAX TEMP:  63;

MONTICELLO     CLOUDY    58  56  93 CALM      29.87F
6HR MIN TEMP:  58; 6HR MAX TEMP:  61;


$$






USA.gov is the U.S. government's official web portal to all federal, state and local government web resources and services.